User: anonymous   Login
Location: Caltech
(34.1382°N, 118.1253°W)
Time: 13:41:18
(UTC-07:00)
Language:

Meteor 1-11 Rocket - Orbit

View from above orbital plane
View from above orbital plane
View from above satellite
View from above satellite

Ground track
Ground track

The orbit data is extracted from the following two-line orbital elements,

1 05918U 72022B   16212.51596450  .00000061  00000-0  28883-4 0  9993
2 05918  81.2373 277.0417 0059296 149.9404 210.5191 14.05807089272809
Epoch (UTC): 30 July 2016 12:22:59
Eccentricity: 0.0059296
inclination: 81.2373°
perigee height: 831 km
apogee height: 917 km
right ascension of ascending node: 277.0417°
argument of perigee: 149.9404°
revolutions per day: 14.05807089
mean anomaly at epoch: 210.5191°
orbit number at epoch: 27280

The dashed part of the orbit path shows where the satellite is in the earth's shadow,  

DLR